Volver al catálogo

GS-1

ActivoCienciaGEO
NORAD 56372·PAYLOAD·🇺🇸 United States

Lanzado May 1, 2023 desde Cape Canaveral Space Force Station

Loading…

TLE

ActualizadoSource: Space-Track

Época: Sep 13, 2026, 22:49 UTC

1 56372U 23060C   26256.95074955 -.00000201  00000-0  00000-0 0  9993
2 56372   2.9476  78.7026 0002970 268.0654  74.8683  1.00251004  8425

Sigue GS-1 en tiempo real con AllMySat

Download on the App Store